Regional Weather Roundup
Issued by NWS Newport/Morehead, NC

Current Version | Previous Version | Text Only | Print | Product List | Glossary Off
Versions: 1 2 3 4 5 6 7 8 9 10 11 12 13 14 15 16 17 18 19 20 21 22 23 24 25 26 27 28 29 30 31 32 33 34 35 36 37 38 39 40 41 42 43 44 45 46 47 48 49 50
000 ASUS42 KMHX 190313 RWRMHX WEATHER ROUNDUP FOR EASTERN NORTH CAROLINA NATIONAL WEATHER SERVICE NEWPORT/MOREHEAD CITY NC 1000 PM EST SUN FEB 18 2018 NOTE: "FAIR" INDICATES FEW OR NO CLOUDS BELOW 12,000 FEET WITH NO SIGNIFICANT WEATHER AND/OR OBSTRUCTIONS TO VISIBILITY NCZ015>017-031-032-045>047-102-103-190400- NORTH COAST CITY SKY/WX TMP DP RH WIND PRES REMARKS EDENTON FAIR 43 38 82 E5 30.50S ELIZABETH CITY FAIR 42 39 89 E7 30.50S KITTY HAWK FAIR 43 37 79 E3 30.48F MANTEO FAIR 44 36 74 E8 30.50S $$ NCZ045>047-081-094-103-104-190400- CENTRAL COAST CITY SKY/WX TMP DP RH WIND PRES REMARKS FRISCO FAIR 47 40 76 NE6 30.47R $$ NCZ095-097-098-100-101-190400- SOUTHERN COAST CITY SKY/WX TMP DP RH WIND PRES REMARKS BEAUFORT CLOUDY 48 38 68 NE12 30.44R CEDAR ISLAND NOT AVBL JACKSONVILLE CLOUDY 50 39 66 NE7 30.44S PINEY ISLAND NOT AVBL WILMINGTON CLOUDY 50 40 68 E12 30.42S $$ NCZ011>013-027>030-043-044-078>080-089-090>093-098-190400- COASTAL PLAIN CITY SKY/WX TMP DP RH WIND PRES REMARKS AHOSKIE FAIR 40 36 86 CALM 30.49S CLINTON CLOUDY 50 40 69 E6 30.45R ELIZABETHTOWN NOT AVBL GOLDSBORO CLOUDY 48 38 69 E14 30.43S GREENVILLE FAIR 43 34 70 E7 30.47F HAVELOCK NOT AVBL KENANSVILLE CLOUDY 48 37 66 E9 30.44S KINSTON CLOUDY 47 37 66 E12 30.47S NEW BERN CLOUDY 46 38 73 NE9 30.48R RICHLANDS CLOUDY 48 38 68 NE9 30.45R ROCKY MOUNT FAIR 45 36 70 VRB6 30.47R WASHINGTON FAIR 41 35 79 E3 30.49S WHITEVILLE CLOUDY 53 42 65 E10 30.41R $$ AMZ130-135-150-152-154-156-158-170-250-252-270-ANZ085-086-088-633-658-670-190400- MARINE OBSERVATIONS STATION/POSITION TIME TEMP WIND PRES WAVE SWELL AIR SEA DIR/SP/G HT/PER HT/PER (UTC) (F) (DEG/KT/KT) (MB) (FT/S) (FT/S) CHESAPEAKE LIGHT NOT AVBL 64 E VA BEACH 0250 46 50 90/ 12/ 14 1033.3 3/ 7 2/ 7 DUCK 0242 45 45 80/ 10/ 11 1032.3 2 E DUCK 0300 44 N/A 3/ 6 OREGON INLET 0242 45 48 40/ 8/ 10 1032.3 13E OREGON INLT 0248 46 N/A 4/ 5 3/ 5 HATTERAS CG 0242 48 56 40/ 9/ 12 1031.4 DIAMOND BUOY 0250 54 73 10/ 16/ 19 1031.3 6/ 9 5/ 9 CAPE LOOKOUT 0300 40/ 20/ 23 1030.9 BEAUFORT LAB 0242 48 54 40/ 11/ 13 1031.1 30 SE NEW RVR IN 0208 57 66 80/ 17/ 21 1029.5 30 SE NEW RVR IN 0300 65 N/A 7/ 6 27 SE WRIGHTSVLE 0208 57 67 80/ 21/ 31 1029.6 5 SE WRIGHTSVLE 0208 52 54 60/ 16/ 21 1029.2 225 S CAPE HAT 0250 69 72 80/ 16/ 19 1027.5 6/ 7 3/10 41 SE CHARLESTON 0300 68 67 50/ 10/ 14 1026.5 $$

USA.gov is the U.S. government's official web portal to all federal, state and local government web resources and services.